カタログに戻る

FENGYUN 1C DEB

運用中SSO
NORAD 37716·DEBRIS·🇨🇳 China

打ち上げ May 10, 1999 から Taiyuan Satellite Launch Center

Loading…

次のパス (今後24時間)

TLE

最新Source: Space-Track

元期: Sep 12, 2026, 10:44 UTC

1 37716U 99025EMH 26255.44738898  .00001822  00000-0  71085-3 0  9997
2 37716  98.6636 320.7036 0034421 128.2236 248.7885 14.30542755644825

AllMySatでFENGYUN 1C DEBをリアルタイム追跡

Download on the App Store